ランキン彗星

P/2024 S2 ( Rankin )

English version
Home page
Updated on March 4, 2025

---------------------------------------------------------------------

・ プロフィール

発見日 2024年9月30日
発見光度 17.6等
発見者 David Rankin (Saguaro Observatory)

・ 軌道要素

Epoch 2024 Oct. 17.0 TT = JDT 2460600.5
T 2024 Sept. 16.43194 TT                                Pike
q   2.0481638            (2000.0)            P               Q
n   0.08700880     Peri.   49.19398     +0.53735278     -0.84314225
a   5.0438320      Node     8.36683     +0.72897121     +0.45298951
e   0.5939270      Incl.    7.52511     +0.42409075     +0.28967507
P  11.3
From 159 observations 2024 Sept. 30-Dec. 29, mean residual 0".6.

・ 光度変化

        m1 = -14.5 + 5 logΔ + 100 log r

        ※ 灰色の曲線は、m1 = 13.5 + 5 logΔ + 10.0 log r の光度曲線です。

---------------------------------------------------------------------

軌道要素はM.P.E.C. 2025-A40に掲載されたものです。
光度グラフはComet for Windowsで作成したものです。

---------------------------------------------------------------------

Copyright(C) Seiichi Yoshida (comet@aerith.net). All rights reserved.